When you browse on this site, cookies collect data to enhance your experience and personalize the content and advertising you see.
Visit our Privacy Policy to learn more. By continuing to use the site, you agree to this use of cookies and data.
  • en France
  • Liste des pays
  • À 7 jours
  • Température de l'eau
  • Carte satellitaire
  • Carte météo
  • Widgets météo
  • user-avatar
    Se connecter

    Météo par heure à Saitkulovo

    Ce jour, 19 Février, Mardi

    Heure Température Précipitation Vent Pression Humidité
    00:00 -11°C° 0.3 mm 5 m/s 691 mmHg 96%
    01:00 -11°C° 0.3 mm 5 m/s 691 mmHg 96%
    02:00 -12°C° 0.3 mm 5 m/s 691 mmHg 95%
    03:00 -12°C° 0.3 mm 5 m/s 691 mmHg 95%
    04:00 -13°C° 0 mm 5 m/s 691 mmHg 94%
    05:00 -13°C° 0.3 mm 5 m/s 691 mmHg 94%
    06:00 -13°C° 0.3 mm 5 m/s 692 mmHg 94%
    07:00 -13°C° 0.3 mm 5 m/s 692 mmHg 94%
    08:00 -12°C° 0.2 mm 5 m/s 693 mmHg 94%
    09:00 -12°C° 0.2 mm 5 m/s 694 mmHg 93%
    10:00 -11°C° 0.2 mm 5 m/s 695 mmHg 93%
    11:00 -10°C° 0.1 mm 5 m/s 696 mmHg 92%
    12:00 -9°C° 0.1 mm 4 m/s 696 mmHg 91%
    13:00 -8°C° 0.1 mm 4 m/s 697 mmHg 90%
    14:00 -8°C° 0.2 mm 4 m/s 698 mmHg 91%
    15:00 -8°C° 0.2 mm 4 m/s 699 mmHg 91%
    16:00 -7°C° 0.2 mm 3 m/s 699 mmHg 92%
    17:00 -7°C° 0.2 mm 3 m/s 700 mmHg 93%
    18:00 -7°C° 0.2 mm 2 m/s 701 mmHg 94%
    19:00 -8°C° 0.2 mm 2 m/s 702 mmHg 95%
    20:00 -9°C° 0.1 mm 2 m/s 702 mmHg 95%
    21:00 -9°C° 0.1 mm 1 m/s 703 mmHg 96%
    22:00 -10°C° 0.1 mm 1 m/s 703 mmHg 96%
    23:00 -10°C° 0 mm 1 m/s 704 mmHg 95%

    Demain, 20 Février, Mercredi

    Heure Température Précipitation Vent Pression Humidité
    00:00 -11°C° 0 mm 1 m/s 704 mmHg 95%
    01:00 -12°C° 0 mm 1 m/s 704 mmHg 95%
    02:00 -12°C° 0 mm 1 m/s 705 mmHg 95%
    03:00 -12°C° 0 mm 1 m/s 705 mmHg 95%
    04:00 -12°C° 0 mm 1 m/s 706 mmHg 95%
    05:00 -13°C° 0 mm 1 m/s 706 mmHg 95%
    06:00 -14°C° 0 mm 1 m/s 706 mmHg 95%
    07:00 -14°C° 0 mm 1 m/s 707 mmHg 95%
    08:00 -14°C° 0 mm 1 m/s 707 mmHg 94%
    09:00 -13°C° 0 mm 1 m/s 708 mmHg 92%
    10:00 -12°C° 0 mm 1 m/s 709 mmHg 91%
    11:00 -11°C° 0 mm 1 m/s 709 mmHg 89%
    12:00 -9°C° 0 mm 1 m/s 709 mmHg 86%
    13:00 -8°C° 0 mm 1 m/s 710 mmHg 84%
    14:00 -8°C° 0 mm 1 m/s 710 mmHg 85%
    15:00 -8°C° 0 mm 1 m/s 710 mmHg 85%
    16:00 -8°C° 0 mm 1 m/s 710 mmHg 86%
    17:00 -10°C° 0 mm 1 m/s 710 mmHg 88%
    18:00 -12°C° 0 mm 1 m/s 711 mmHg 89%
    19:00 -13°C° 0 mm 1 m/s 711 mmHg 91%
    20:00 -15°C° 0 mm 2 m/s 711 mmHg 91%
    21:00 -15°C° 0 mm 2 m/s 711 mmHg 91%
    22:00 -15°C° 0 mm 2 m/s 711 mmHg 91%
    23:00 -15°C° 0 mm 2 m/s 710 mmHg 91%

    Après-demain, 21 Février, Jeudi

    Heure Température Précipitation Vent Pression Humidité
    00:00 -15°C° 0 mm 2 m/s 710 mmHg 92%
    01:00 -16°C° 0 mm 2 m/s 710 mmHg 92%
    02:00 -16°C° 0 mm 2 m/s 710 mmHg 93%
    03:00 -17°C° 0 mm 2 m/s 709 mmHg 93%
    04:00 -18°C° 0 mm 2 m/s 709 mmHg 94%
    05:00 -18°C° 0 mm 3 m/s 709 mmHg 94%
    06:00 -17°C° 0 mm 3 m/s 709 mmHg 94%
    07:00 -16°C° 0 mm 3 m/s 709 mmHg 94%
    08:00 -14°C° 0 mm 3 m/s 709 mmHg 91%
    09:00 -14°C° 0 mm 4 m/s 710 mmHg 88%
    10:00 -11°C° 0 mm 4 m/s 710 mmHg 85%
    11:00 -11°C° 0 mm 5 m/s 710 mmHg 82%
    12:00 -9°C° 0 mm 6 m/s 710 mmHg 79%
    13:00 -8°C° 0 mm 7 m/s 710 mmHg 77%
    14:00 -8°C° 0 mm 6 m/s 710 mmHg 77%
    15:00 -8°C° 0 mm 6 m/s 711 mmHg 77%
    16:00 -9°C° 0 mm 6 m/s 711 mmHg 78%
    17:00 -10°C° 0 mm 5 m/s 711 mmHg 81%
    18:00 -11°C° 0 mm 5 m/s 711 mmHg 84%
    19:00 -11°C° 0 mm 4 m/s 711 mmHg 87%
    20:00 -11°C° 0 mm 4 m/s 711 mmHg 88%
    21:00 -11°C° 0 mm 4 m/s 712 mmHg 90%
    22:00 -11°C° 0 mm 4 m/s 712 mmHg 91%
    23:00 -10°C° 0 mm 4 m/s 712 mmHg 91%

    22 Février, Vendredi

    Heure Température Précipitation Vent Pression Humidité
    00:00 -10°C° 0 mm 4 m/s 712 mmHg 91%
    01:00 -10°C° 0 mm 4 m/s 712 mmHg 91%
    02:00 -10°C° 0 mm 4 m/s 712 mmHg 91%
    03:00 -10°C° 0 mm 4 m/s 712 mmHg 91%
    04:00 -10°C° 0 mm 4 m/s 712 mmHg 91%
    05:00 -10°C° 0 mm 3 m/s 711 mmHg 92%
    06:00 -12°C° 0 mm 3 m/s 711 mmHg 92%
    07:00 -12°C° 0 mm 3 m/s 711 mmHg 93%
    08:00 -12°C° 0 mm 3 m/s 711 mmHg 92%
    09:00 -11°C° 0 mm 4 m/s 711 mmHg 92%
    10:00 -10°C° 0 mm 4 m/s 711 mmHg 92%
    11:00 -11°C° 0.1 mm 5 m/s 710 mmHg 92%
    12:00 -10°C° 0.1 mm 5 m/s 710 mmHg 92%
    13:00 -10°C° 0.1 mm 5 m/s 710 mmHg 92%
    14:00 -10°C° 0.2 mm 5 m/s 710 mmHg 92%
    15:00 -10°C° 0.2 mm 6 m/s 709 mmHg 92%
    16:00 -10°C° 0.2 mm 6 m/s 709 mmHg 92%
    17:00 -9°C° 0.3 mm 6 m/s 709 mmHg 92%
    18:00 -9°C° 0.3 mm 6 m/s 709 mmHg 93%
    19:00 -9°C° 0.3 mm 6 m/s 709 mmHg 93%
    20:00 -8°C° 0.4 mm 5 m/s 709 mmHg 93%
    21:00 -7°C° 0.4 mm 5 m/s 709 mmHg 94%
    22:00 -7°C° 0.4 mm 5 m/s 710 mmHg 94%
    23:00 -8°C° 0.1 mm 4 m/s 710 mmHg 92%

    23 Février, Samedi

    Heure Température Précipitation Vent Pression Humidité
    00:00 -9°C° 0.1 mm 4 m/s 710 mmHg 90%
    01:00 -11°C° 0.1 mm 4 m/s 710 mmHg 87%
    02:00 -12°C° 0 mm 3 m/s 711 mmHg 90%
    03:00 -13°C° 0 mm 3 m/s 711 mmHg 92%
    04:00 -14°C° 0 mm 3 m/s 712 mmHg 94%
    05:00 -14°C° 0 mm 3 m/s 712 mmHg 94%
    06:00 -14°C° 0 mm 3 m/s 713 mmHg 94%
    07:00 -14°C° 0 mm 3 m/s 713 mmHg 94%
    08:00 -13°C° 0 mm 3 m/s 714 mmHg 93%
    09:00 -10°C° 0 mm 3 m/s 714 mmHg 92%
    10:00 -9°C° 0 mm 3 m/s 715 mmHg 91%
    11:00 -9°C° 0.1 mm 4 m/s 715 mmHg 89%
    12:00 -9°C° 0.1 mm 4 m/s 715 mmHg 87%
    13:00 -8°C° 0.1 mm 4 m/s 716 mmHg 85%
    14:00 -8°C° 0 mm 4 m/s 716 mmHg 85%
    15:00 -8°C° 0 mm 4 m/s 716 mmHg 86%
    16:00 -8°C° 0 mm 4 m/s 716 mmHg 86%
    17:00 -9°C° 0 mm 4 m/s 716 mmHg 88%
    18:00 -10°C° 0 mm 3 m/s 716 mmHg 90%
    19:00 -12°C° 0 mm 3 m/s 716 mmHg 93%
    20:00 -12°C° 0 mm 3 m/s 717 mmHg 93%
    21:00 -13°C° 0 mm 3 m/s 717 mmHg 93%
    22:00 -13°C° 0 mm 3 m/s 717 mmHg 93%
    23:00 -13°C° 0 mm 3 m/s 717 mmHg 93%

    24 Février, Dimanche

    Heure Température Précipitation Vent Pression Humidité
    00:00 -14°C° 0 mm 3 m/s 717 mmHg 93%
    01:00 -14°C° 0 mm 3 m/s 717 mmHg 93%
    02:00 -14°C° 0 mm 3 m/s 718 mmHg 93%
    03:00 -14°C° 0 mm 3 m/s 718 mmHg 93%
    04:00 -14°C° 0 mm 3 m/s 718 mmHg 93%
    05:00 -14°C° 0 mm 3 m/s 718 mmHg 93%
    06:00 -15°C° 0 mm 3 m/s 718 mmHg 93%
    07:00 -15°C° 0 mm 3 m/s 718 mmHg 93%
    08:00 -14°C° 0 mm 3 m/s 718 mmHg 92%
    09:00 -14°C° 0 mm 3 m/s 719 mmHg 92%
    10:00 -13°C° 0 mm 3 m/s 719 mmHg 91%
    11:00 -12°C° 0 mm 3 m/s 719 mmHg 90%
    12:00 -10°C° 0 mm 3 m/s 719 mmHg 89%
    13:00 -8°C° 0 mm 3 m/s 719 mmHg 88%
    14:00 -8°C° 0 mm 3 m/s 719 mmHg 88%
    15:00 -8°C° 0 mm 3 m/s 719 mmHg 88%
    16:00 -8°C° 0 mm 3 m/s 719 mmHg 87%
    17:00 -10°C° 0 mm 3 m/s 720 mmHg 89%
    18:00 -12°C° 0 mm 3 m/s 720 mmHg 91%
    19:00 -13°C° 0 mm 3 m/s 720 mmHg 92%
    20:00 -13°C° 0 mm 2 m/s 720 mmHg 93%
    21:00 -14°C° 0 mm 2 m/s 720 mmHg 94%
    22:00 -15°C° 0 mm 2 m/s 720 mmHg 95%
    23:00 -15°C° 0 mm 2 m/s 720 mmHg 96%
    Voir plus